Weather Roundup
Issued by NWS Springfield, MO

Home | Current Version | Previous Version | Text Only | Print | Product List | Glossary On
Versions: 1 2 3 4 5 6 7 8 9 10 11 12 13 14 15 16 17 18 19 20 21 22 23 24 25 26 27 28 29 30 31 32 33 34 35 36 37 38 39 40 41 42 43 44 45 46 47 48 49 50
000
NZUS99 KSGF 011407
HRRSGF

HOURLY WEATHER
NATIONAL WEATHER SERVICE SPRINGFIELD MO
900 AM CDT SAT AUG 01 2015

......SGF CWA......

CITY           SKY/WX    TMP DP  RH WIND       PRES   REMARKS
SPRINGFIELD    SUNNY     77  63  61 CALM      30.10S
JOPLIN         SUNNY     78  63  59 S5        30.10R
WEST PLAINS    SUNNY     79  62  56 W5        30.12S
ROLLA          SUNNY     77  67  71 W6        30.08R
OSAGE BEACH    SUNNY     75  66  73 SW3       30.09R
BRANSON        SUNNY     75  64  69 CALM      30.12S

......SURROUNDING SGF CWA......

CITY           SKY/WX    TMP DP  RH WIND       PRES   REMARKS
CHANUTE        SUNNY     79  74  84 VRB5      30.09R
PARSONS        SUNNY     77  72  84 CALM      30.10R
COFFEYVILLE      N/A     76  68  76 CALM      30.09R
EMPORIA        SUNNY     79  73  82 W7        30.09R
GROVE OK       SUNNY     73  72  94 CALM      30.10S
ROGERS AR      SUNNY     77  67  71 SE5       30.13R
SILOAM SPRINGS SUNNY     73  63  68 SE5       30.10S
HARRISON AR    SUNNY     78  67  68 CALM      30.13R
NEAR YELLVILLE SUNNY     73  66  78 CALM      30.08S

......KANSAS AND MISSOURI......

CITY           SKY/WX    TMP DP  RH WIND       PRES   REMARKS
KANSAS CTY INT MOSUNNY   79  72  79 W6        30.07R
DOWNTOWN KC    SUNNY     81  73  76 W3        30.05R
COLUMBIA       SUNNY     78  70  76 NE6       30.08R
SEDALIA        SUNNY     82  72  71 NW8       30.08R
ST JOSEPH      MOSUNNY   76  72  87 CALM      30.06R
ST LOUIS       PTSUNNY   79  63  57 E3        30.07R
SPIRIT OF STL  PTSUNNY   74  70  87 CALM      30.07R
KIRKSVILLE     PTSUNNY   76  67  73 SE5       30.08R
WICHITA        MOSUNNY   78  72  81 S3        30.08S
TOPEKA         SUNNY     80  73  79 VRB5      30.07R
OLATHE         SUNNY     79  72  79 W9        30.07R

......TENNESSEE......

CITY           SKY/WX    TMP DP  RH WIND       PRES   REMARKS
MEMPHIS        MOSUNNY   85  68  56 CALM      30.04F
NASHVILLE      SUNNY     81  66  60 N5        30.06S

......ARKANSAS.......

CITY           SKY/WX    TMP DP  RH WIND       PRES   REMARKS
FAYETTEVILLE   SUNNY     71  64  78 CALM      30.12S
FT SMITH       SUNNY     77  66  68 VRB3      30.07S
LITTLE ROCK    MOSUNNY   83  67  58 N5        30.05F

......OKLAHOMA.......

CITY           SKY/WX    TMP DP  RH WIND       PRES   REMARKS
TULSA          MOSUNNY   79  71  76 VRB5      30.06S
PONCA CITY     MOSUNNY   79  74  84 CALM      30.07S
MCALESTER      PTSUNNY   78  68  71 CALM      30.09R
OKLAHOMA CITY  PTSUNNY   79  74  84 SE3       30.10R

......IOWA............

CITY           SKY/WX    TMP DP  RH WIND       PRES   REMARKS
DES MOINES     CLOUDY    77  66  68 SW7       30.04S
QUAD CITIES    SUNNY     75  62  64 SW3       30.02F

......ILLINOIS........

CITY           SKY/WX    TMP DP  RH WIND       PRES   REMARKS
QUINCY         SUNNY     77  65  66 S6        30.07R
CHICAGO        MOSUNNY   75  57  53 W8        29.99S




USA.gov is the U.S. government's official web portal to all federal, state and local government web resources and services.